| time (UTC) | temp F | wind direction | speed MPH | gust MPH | rain 1hr in | rain 24hr in | rain mn in | humidity % | barometer mb |
| 20260508012659 | 52 | 193 | 1.0 | 4.0 | 0.00 | 0.00 | 0.00 | 71 | 1015.4 |
| 20260508011758 | 52 | 151 | 2.0 | 5.0 | 0.00 | 0.00 | 0.00 | 68 | 1015.4 |
| 20260508005958 | 53 | 176 | 3.0 | 7.0 | 0.00 | 0.00 | 0.00 | 65 | 1015.3 |
| 20260508005058 | 53 | 220 | 3.0 | 5.0 | 0.00 | 0.00 | 0.00 | 62 | 1015.0 |
| 20260508003258 | 53 | 0 | 0.0 | 0.0 | 0.00 | 0.00 | 0.00 | 62 | 1014.8 |
| 20260508002358 | 54 | 0 | 0.0 | 0.0 | 0.00 | 0.00 | 0.00 | 59 | 1014.5 |
| 20260508001458 | 55 | 0 | 0.0 | 0.0 | 0.00 | 0.00 | 0.00 | 56 | 1014.5 |
| 20260508000558 | 56 | 0 | 0.0 | 0.0 | 0.00 | 0.00 | 0.00 | 53 | 1014.5 |
| 20260507234757 | 59 | 270 | 0.0 | 3.0 | 0.00 | 0.00 | 0.00 | 48 | 1014.2 |
| 20260507233858 | 60 | 279 | 2.0 | 4.0 | 0.00 | 0.00 | 0.00 | 45 | 1014.2 |
| 20260507232958 | 60 | 287 | 2.0 | 5.0 | 0.00 | 0.00 | 0.00 | 42 | 1014.0 |
| 20260507232058 | 61 | 275 | 1.0 | 4.0 | 0.00 | 0.00 | 0.00 | 41 | 1013.8 |
| 20260507231158 | 61 | 288 | 3.0 | 7.0 | 0.00 | 0.00 | 0.00 | 39 | 1013.7 |
| 20260507230258 | 62 | 289 | 2.0 | 6.0 | 0.00 | 0.00 | 0.00 | 37 | 1013.6 |
| 20260507225358 | 61 | 281 | 3.0 | 7.0 | 0.00 | 0.00 | 0.00 | 38 | 1013.7 |
| 20260507224458 | 62 | 290 | 3.0 | 6.0 | 0.00 | 0.00 | 0.00 | 38 | 1013.7 |
| 20260507223558 | 62 | 291 | 4.0 | 8.0 | 0.00 | 0.00 | 0.00 | 37 | 1013.6 |
| 20260507222658 | 62 | 287 | 4.0 | 7.0 | 0.00 | 0.00 | 0.00 | 36 | 1013.7 |
| 20260507221758 | 62 | 283 | 5.0 | 8.0 | 0.00 | 0.00 | 0.00 | 36 | 1013.7 |
| 20260507220858 | 62 | 293 | 3.0 | 7.0 | 0.00 | 0.00 | 0.00 | 35 | 1013.8 |
| 20260507215957 | 62 | 306 | 3.0 | 7.0 | 0.00 | 0.00 | 0.00 | 36 | 1013.7 |
| 20260507215058 | 62 | 299 | 3.0 | 6.0 | 0.00 | 0.00 | 0.00 | 35 | 1013.7 |
| 20260507214157 | 62 | 292 | 4.0 | 9.0 | 0.00 | 0.00 | 0.00 | 37 | 1013.6 |
| 20260507213257 | 62 | 289 | 4.0 | 9.0 | 0.00 | 0.00 | 0.00 | 35 | 1013.6 |
| 20260507211458 | 62 | 297 | 4.0 | 9.0 | 0.00 | 0.00 | 0.00 | 36 | 1013.5 |
| 20260507205657 | 62 | 293 | 4.0 | 9.0 | 0.00 | 0.00 | 0.00 | 37 | 1013.6 |
| 20260507203859 | 61 | 281 | 4.0 | 9.0 | 0.00 | 0.00 | 0.00 | 36 | 1013.6 |
| 20260507202957 | 61 | 257 | 4.0 | 10.0 | 0.00 | 0.00 | 0.00 | 37 | 1013.6 |
| 20260507202058 | 61 | 275 | 4.0 | 9.0 | 0.00 | 0.00 | 0.00 | 38 | 1013.7 |
| 20260507201157 | 61 | 296 | 6.0 | 10.0 | 0.00 | 0.00 | 0.00 | 36 | 1013.7 |
| 20260507200258 | 61 | 284 | 5.0 | 10.0 | 0.00 | 0.00 | 0.00 | 37 | 1013.6 |
| 20260507195358 | 60 | 274 | 5.0 | 13.0 | 0.00 | 0.00 | 0.00 | 38 | 1013.8 |
| 20260507194457 | 60 | 308 | 5.0 | 13.0 | 0.00 | 0.00 | 0.00 | 38 | 1013.9 |
| 20260507192657 | 60 | 295 | 6.0 | 12.0 | 0.00 | 0.00 | 0.00 | 36 | 1014.1 |
| 20260507191757 | 60 | 285 | 6.0 | 9.0 | 0.00 | 0.00 | 0.00 | 37 | 1014.1 |
| 20260507190857 | 59 | 307 | 6.0 | 11.0 | 0.00 | 0.00 | 0.00 | 37 | 1014.2 |
| 20260507185957 | 60 | 331 | 4.0 | 11.0 | 0.00 | 0.00 | 0.00 | 40 | 1014.3 |
| 20260507185057 | 60 | 325 | 5.0 | 9.0 | 0.00 | 0.00 | 0.00 | 39 | 1014.4 |
| 20260507184157 | 59 | 322 | 6.0 | 12.0 | 0.00 | 0.00 | 0.00 | 39 | 1014.6 |
| 20260507183257 | 59 | 311 | 6.0 | 10.0 | 0.00 | 0.00 | 0.00 | 40 | 1014.7 |
| 20260507182357 | 58 | 306 | 5.0 | 10.0 | 0.00 | 0.00 | 0.00 | 41 | 1014.8 |
| 20260507180558 | 58 | 292 | 6.0 | 13.0 | 0.00 | 0.00 | 0.00 | 40 | 1015.1 |
| 20260507175657 | 58 | 282 | 5.0 | 11.0 | 0.00 | 0.00 | 0.00 | 40 | 1015.1 |
| 20260507174757 | 58 | 311 | 4.0 | 11.0 | 0.00 | 0.00 | 0.00 | 39 | 1015.1 |
| 20260507173856 | 58 | 359 | 6.0 | 11.0 | 0.00 | 0.00 | 0.00 | 43 | 1015.2 |
| 20260507172056 | 57 | 326 | 6.0 | 11.0 | 0.00 | 0.00 | 0.00 | 42 | 1015.3 |
| 20260507171156 | 58 | 357 | 6.0 | 12.0 | 0.00 | 0.00 | 0.00 | 40 | 1015.5 |
| 20260507170256 | 57 | 304 | 5.0 | 13.0 | 0.00 | 0.00 | 0.00 | 43 | 1015.6 |
| 20260507165356 | 58 | 4 | 6.0 | 10.0 | 0.00 | 0.00 | 0.00 | 46 | 1015.7 |
| 20260507163556 | 56 | 340 | 6.0 | 11.0 | 0.00 | 0.00 | 0.00 | 47 | 1016.0 |
| 20260507162656 | 56 | 24 | 6.0 | 13.0 | 0.00 | 0.00 | 0.00 | 55 | 1016.1 |
| 20260507161757 | 56 | 346 | 5.0 | 11.0 | 0.00 | 0.00 | 0.00 | 59 | 1016.3 |
| 20260507154157 | 56 | 302 | 5.0 | 11.0 | 0.00 | 0.00 | 0.00 | 66 | 1016.7 |
| 20260507153256 | 55 | 316 | 6.0 | 11.0 | 0.00 | 0.00 | 0.00 | 68 | 1016.7 |
| 20260507152356 | 54 | 314 | 5.0 | 10.0 | 0.00 | 0.00 | 0.00 | 69 | 1016.8 |
| 20260507151457 | 54 | 310 | 5.0 | 10.0 | 0.00 | 0.00 | 0.00 | 76 | 1016.8 |
| 20260507150556 | 53 | 293 | 5.0 | 11.0 | 0.00 | 0.00 | 0.00 | 73 | 1017.0 |
| 20260507145656 | 53 | 290 | 6.0 | 11.0 | 0.00 | 0.00 | 0.00 | 74 | 1016.7 |
| 20260507144757 | 53 | 300 | 6.0 | 11.0 | 0.00 | 0.00 | 0.00 | 76 | 1016.8 |
| 20260507143856 | 53 | 299 | 5.0 | 11.0 | 0.00 | 0.00 | 0.00 | 77 | 1016.9 |
| 20260507142956 | 52 | 302 | 7.0 | 12.0 | 0.00 | 0.00 | 0.00 | 77 | 1016.9 |
| 20260507142058 | 53 | 318 | 6.0 | 12.0 | 0.00 | 0.00 | 0.00 | 78 | 1016.9 |
| 20260507140255 | 52 | 340 | 6.0 | 12.0 | 0.00 | 0.00 | 0.00 | 80 | 1016.9 |
| 20260507135356 | 51 | 319 | 8.0 | 13.0 | 0.00 | 0.00 | 0.00 | 80 | 1016.8 |
| 20260507134455 | 51 | 321 | 7.0 | 12.0 | 0.00 | 0.00 | 0.00 | 81 | 1016.9 |
| 20260507133555 | 51 | 328 | 6.0 | 15.0 | 0.00 | 0.00 | 0.00 | 82 | 1016.8 |
| 20260507131755 | 51 | 332 | 6.0 | 11.0 | 0.00 | 0.00 | 0.00 | 82 | 1017.0 |
| 20260507130856 | 50 | 337 | 5.0 | 13.0 | 0.00 | 0.00 | 0.00 | 85 | 1017.0 |
| 20260507125955 | 50 | 328 | 5.0 | 11.0 | 0.00 | 0.00 | 0.00 | 86 | 1017.1 |
| 20260507125055 | 50 | 320 | 6.0 | 13.0 | 0.00 | 0.00 | 0.00 | 86 | 1017.0 |
| 20260507124155 | 50 | 333 | 5.0 | 12.0 | 0.00 | 0.00 | 0.00 | 87 | 1016.9 |
| 20260507123255 | 50 | 326 | 4.0 | 10.0 | 0.00 | 0.00 | 0.00 | 88 | 1016.8 |
| 20260507122356 | 50 | 325 | 4.0 | 8.0 | 0.00 | 0.00 | 0.00 | 88 | 1016.7 |
| 20260507121456 | 50 | 332 | 5.0 | 9.0 | 0.00 | 0.00 | 0.00 | 88 | 1016.7 |
| 20260507120555 | 50 | 342 | 6.0 | 12.0 | 0.00 | 0.00 | 0.00 | 89 | 1016.6 |
| 20260507115655 | 50 | 337 | 5.0 | 11.0 | 0.00 | 0.00 | 0.00 | 90 | 1016.5 |
| 20260507114756 | 50 | 329 | 5.0 | 8.0 | 0.00 | 0.00 | 0.00 | 91 | 1016.4 |
| 20260507113855 | 50 | 342 | 4.0 | 7.0 | 0.00 | 0.00 | 0.00 | 92 | 1016.3 |
| 20260507112955 | 50 | 347 | 3.0 | 8.0 | 0.00 | 0.00 | 0.00 | 93 | 1016.2 |
| 20260507112055 | 50 | 342 | 3.0 | 6.0 | 0.00 | 0.00 | 0.00 | 93 | 1016.0 |
| 20260507111155 | 49 | 340 | 2.0 | 7.0 | 0.00 | 0.00 | 0.00 | 93 | 1015.8 |
| 20260507110256 | 50 | 323 | 1.0 | 4.0 | 0.00 | 0.00 | 0.00 | 93 | 1016.1 |
| 20260507105355 | 49 | 318 | 2.0 | 5.0 | 0.00 | 0.00 | 0.00 | 93 | 1016.1 |
| 20260507104455 | 49 | 318 | 2.0 | 5.0 | 0.00 | 0.00 | 0.00 | 93 | 1015.9 |
| 20260507103555 | 49 | 328 | 3.0 | 4.0 | 0.00 | 0.00 | 0.00 | 93 | 1015.7 |
| 20260507102655 | 49 | 333 | 2.0 | 4.0 | 0.00 | 0.00 | 0.00 | 93 | 1015.6 |
| 20260507101755 | 49 | 351 | 2.0 | 4.0 | 0.00 | 0.00 | 0.00 | 93 | 1015.3 |
| 20260507095955 | 50 | 334 | 4.0 | 7.0 | 0.00 | 0.00 | 0.00 | 93 | 1015.3 |
| 20260507094154 | 50 | 334 | 2.0 | 6.0 | 0.00 | 0.00 | 0.00 | 93 | 1015.4 |
| 20260507093255 | 50 | 335 | 2.0 | 4.0 | 0.00 | 0.00 | 0.00 | 93 | 1015.4 |
| 20260507092355 | 50 | 322 | 2.0 | 4.0 | 0.00 | 0.00 | 0.00 | 92 | 1015.5 |
| 20260507091455 | 50 | 322 | 3.0 | 9.0 | 0.00 | 0.00 | 0.00 | 93 | 1015.5 |
| 20260507085654 | 50 | 344 | 4.0 | 7.0 | 0.00 | 0.00 | 0.00 | 92 | 1014.8 |
| 20260507084754 | 50 | 339 | 5.0 | 11.0 | 0.00 | 0.00 | 0.00 | 93 | 1015.0 |
| 20260507083854 | 50 | 350 | 6.0 | 13.0 | 0.00 | 0.00 | 0.00 | 92 | 1014.6 |
| 20260507082954 | 50 | 330 | 4.0 | 11.0 | 0.00 | 0.00 | 0.00 | 92 | 1014.9 |
| 20260507082054 | 50 | 347 | 5.0 | 11.0 | 0.00 | 0.00 | 0.00 | 92 | 1014.8 |
| 20260507081154 | 50 | 330 | 5.0 | 11.0 | 0.00 | 0.00 | 0.00 | 92 | 1015.0 |
| 20260507080254 | 50 | 327 | 6.0 | 12.0 | 0.00 | 0.00 | 0.00 | 92 | 1015.3 |
| 20260507075354 | 50 | 329 | 6.0 | 15.0 | 0.00 | 0.00 | 0.00 | 92 | 1014.9 |
| 20260507074454 | 50 | 321 | 7.0 | 15.0 | 0.00 | 0.00 | 0.00 | 92 | 1014.9 |
| 20260507073555 | 50 | 324 | 6.0 | 14.0 | 0.00 | 0.00 | 0.00 | 92 | 1014.6 |
| 20260507072654 | 50 | 320 | 6.0 | 12.0 | 0.00 | 0.00 | 0.00 | 91 | 1014.7 |
| 20260507071755 | 50 | 328 | 6.0 | 15.0 | 0.00 | 0.00 | 0.00 | 91 | 1014.7 |
| 20260507065954 | 51 | 334 | 6.0 | 11.0 | 0.00 | 0.00 | 0.00 | 90 | 1014.3 |
| 20260507065055 | 51 | 325 | 6.0 | 13.0 | 0.00 | 0.00 | 0.00 | 90 | 1014.7 |
| 20260507064154 | 51 | 335 | 7.0 | 15.0 | 0.00 | 0.00 | 0.00 | 89 | 1013.5 |
| 20260507063255 | 52 | 327 | 8.0 | 15.0 | 0.00 | 0.00 | 0.00 | 88 | 1014.7 |
| 20260507062355 | 52 | 328 | 8.0 | 16.0 | 0.00 | 0.00 | 0.00 | 87 | 1014.6 |
| 20260507060554 | 53 | 337 | 5.0 | 10.0 | 0.00 | 0.00 | 0.00 | 87 | 1013.8 |
| 20260507055654 | 53 | 324 | 5.0 | 10.0 | 0.00 | 0.00 | 0.00 | 87 | 1013.8 |
| 20260507054754 | 53 | 329 | 5.0 | 12.0 | 0.00 | 0.00 | 0.00 | 87 | 1013.9 |
| 20260507053854 | 54 | 320 | 7.0 | 13.0 | 0.00 | 0.00 | 0.00 | 87 | 1013.8 |
| 20260507052954 | 55 | 318 | 7.0 | 13.0 | 0.00 | 0.00 | 0.00 | 88 | 1013.9 |
| 20260507052054 | 56 | 312 | 6.0 | 14.0 | 0.00 | 0.00 | 0.00 | 90 | 1013.9 |
| 20260507051154 | 57 | 299 | 3.0 | 9.0 | 0.00 | 0.00 | 0.00 | 90 | 1013.6 |
| 20260507050254 | 57 | 289 | 3.0 | 5.0 | 0.00 | 0.00 | 0.00 | 91 | 1013.8 |
| 20260507045354 | 58 | 293 | 3.0 | 6.0 | 0.00 | 0.00 | 0.00 | 91 | 1013.9 |
| 20260507044454 | 58 | 287 | 3.0 | 6.0 | 0.00 | 0.00 | 0.00 | 91 | 1013.9 |
| 20260507043555 | 58 | 287 | 4.0 | 8.0 | 0.00 | 0.00 | 0.00 | 91 | 1014.2 |
| 20260507042654 | 58 | 292 | 4.0 | 8.0 | 0.00 | 0.00 | 0.00 | 92 | 1014.3 |
| 20260507041754 | 58 | 290 | 2.0 | 5.0 | 0.00 | 0.00 | 0.00 | 94 | 1014.2 |
| 20260507040854 | 58 | 268 | 1.0 | 3.0 | 0.00 | 0.00 | 0.00 | 94 | 1014.1 |
| 20260507035954 | 58 | 270 | 2.0 | 3.0 | 0.00 | 0.00 | 0.00 | 93 | 1014.1 |
| 20260507035054 | 58 | 232 | 2.0 | 4.0 | 0.00 | 0.00 | 0.00 | 93 | 1014.1 |
| 20260507034154 | 58 | 210 | 2.0 | 5.0 | 0.00 | 0.00 | 0.00 | 93 | 1014.2 |
| 20260507033253 | 58 | 265 | 2.0 | 5.0 | 0.00 | 0.00 | 0.00 | 93 | 1014.0 |
| 20260507032354 | 58 | 216 | 1.0 | 3.0 | 0.00 | 0.00 | 0.00 | 92 | 1014.0 |
| 20260507031453 | 58 | 223 | 0.0 | 2.0 | 0.00 | 0.00 | 0.00 | 92 | 1014.0 |
| 20260507030554 | 58 | 262 | 1.0 | 4.0 | 0.00 | 0.00 | 0.00 | 92 | 1014.2 |
| 20260507025653 | 58 | 266 | 2.0 | 5.0 | 0.00 | 0.00 | 0.00 | 92 | 1014.1 |
| 20260507024753 | 58 | 242 | 3.0 | 6.0 | 0.00 | 0.00 | 0.00 | 91 | 1014.4 |
| 20260507023854 | 57 | 218 | 2.0 | 7.0 | 0.00 | 0.00 | 0.00 | 91 | 1014.2 |
| 20260507022954 | 57 | 187 | 1.0 | 3.0 | 0.00 | 0.00 | 0.00 | 91 | 1014.2 |
| 20260507022053 | 57 | 181 | 2.0 | 4.0 | 0.00 | 0.00 | 0.00 | 91 | 1014.0 |
| 20260507021153 | 57 | 197 | 2.0 | 5.0 | 0.00 | 0.00 | 0.00 | 91 | 1014.4 |
| 20260507020253 | 57 | 194 | 2.0 | 5.0 | 0.00 | 0.00 | 0.00 | 91 | 1014.4 |
| 20260507015353 | 57 | 197 | 2.0 | 5.0 | 0.00 | 0.00 | 0.00 | 91 | 1014.3 |
| 20260507014453 | 57 | 191 | 3.0 | 6.0 | 0.00 | 0.00 | 0.00 | 91 | 1014.2 |